Regional Weather Roundup
Issued by NWS Jackson, KY

Home | Current Version | Previous Version | Graphics & Text | Print | Product List | Glossary On
Versions: 1 2 3 4 5 6 7 8 9 10 11 12 13 14 15 16 17 18 19 20 21 22 23 24 25 26 27 28 29 30 31 32 33 34 35 36 37 38 39 40 41 42 43 44 45 46 47 48 49 50
000
ASUS43 KJKL 280710
RWRJKL

EAST KENTUCKY HOURLY WEATHER ROUNDUP
NATIONAL WEATHER SERVICE JACKSON KY
300 AM EDT SAT MAY 28 2016

NOTE: "FAIR" INDICATES FEW OR NO CLOUDS BELOW 12,000 FEET WITH
NO SIGNIFICANT WEATHER AND/OR OBSTRUCTIONS TO VISIBILITY.

* THESE REPORTS ARE NOT UNDER NWS QUALITY CONTROL AND MAY NOT
  REPORT WEATHER SUCH AS PRECIPITATION AND FOG.

KYZ079-080-083-085-087-088-110-112-115-119-120-280800
...EASTERN KENTUCKY...

CITY           SKY/WX    TMP DP  RH WIND       PRES   REMARKS
JACKSON        PTCLDY    67  64  90 CALM      30.09S
LONDON         PTCLDY    67  62  84 CALM      30.08S
SOMERSET*      PTCLDY    64  63  94 CALM      30.08R
MONTICELLO*    CLEAR     66  64  93 NE9       30.07F
WILLIAMSBURG*  MOSUNNY   63  63 100 SE7       30.08S
MIDDLESBORO*   CLEAR     62  62 100 CALM      30.11S
HARLAN APT*    CLOUDY    64  63  94 CALM      30.13R
HAZARD APT*    MOSUNNY   66  66 100 CALM      30.10S FOG
BLACK MTN*       N/A     61  59  94 SE1         N/A
PIKE CO APT*     N/A     67  65  94 S5        30.11S
BIG SANDY APT* MOSUNNY   71  64  79 S6        30.08F
MOREHEAD APT*  CLOUDY    70  63  78 S5        30.07F
ASHLAND*       CLOUDY    70  66  88 CALM      30.04R
$$

KYZ035-036-041-042-044-050-067-078-099-280800
...CENTRAL KENTUCKY...

CITY           SKY/WX    TMP DP  RH WIND       PRES   REMARKS
MT STERLING*   CLOUDY    72  64  78 SW5       30.07S
FLEMING/MASON* CLOUDY   N/A N/A N/A S3        30.06S
DANVILLE*      CLEAR     66  63  88 CALM      30.07S
RICHMOND*      PTCLDY    72  63  73 S7        30.05S
LEXINGTON      CLEAR     69  64  84 SW7       30.05S
FRANKFORT      CLEAR     70  64  81 SE5       30.02F
LOUISVILLE     CLOUDY    73  65  75 S8        29.99F
LEBANON*         N/A     68  66  94 S6        30.05R
GLASGOW*       CLOUDY    67  67 100 CALM      30.02S
BOWLING GREEN  CLOUDY    71  66  84 SE7       30.00S
$$

KYZ091>093-OHZ055-061-077-WVZ005-015-034-035-042-280800
...SOUTHERN OHIO/WEST VIRGINIA...

CITY           SKY/WX    TMP DP  RH WIND       PRES   REMARKS
COVINGTON      MOCLDY    72  65  78 S9        30.01F
COLUMBUS       MOCLDY    69  64  84 CALM      30.03S
DAYTON         CLOUDY    68  63  84 SE7       30.02F
WILMINGTON     MOCLDY    70  64  81 S5        30.03F
HUNTINGTON       N/A     70  66  87 CALM      30.06S
CHARLESTON       N/A     66  63  90 CALM      30.07F
PINEVILLE*     FOG       62  60  91 MISG      30.19S VSB 3/4
BECKLEY          N/A     66  60  81 SE8       30.17F
BLUEFIELD        N/A     66  58  75 S6        30.19F
LOGAN CO APT*    N/A     70  64  83 CALM      30.11S
$$

VAZ002-007-008-TNZ017-027-036-066-071-280800
...SOUTHWEST VIRGINIA/EAST TENNESSEE...

CITY           SKY/WX    TMP DP  RH WIND       PRES   REMARKS
WISE*            N/A     66  55  68 S9        30.18S
JONESVILLE*    FOG       63  63 100 CALM      30.14S VSB 1/4
ABINGDON*        N/A     64  63  97 CALM      30.16S
BRISTOL        FOG       61  60  97 CALM      30.13S VSB 3/4
SEVIERVILLE*   SUNNY     63  63 100 CALM      30.09S
KNOXVILLE      FOG       65  65 100 NE3       30.08S VSB 1/4
OAK RIDGE      FOG       67  66  97 CALM      30.10S VSB 3/4
CROSSVILLE     CLEAR     70  59  68 VRB3      30.10S
NASHVILLE      CLOUDY    73  63  70 SE6       30.00F
$$

...KEY TO REMARKS...
VSB - VISIBILITY IN MILES
WCI - WIND CHILL INDEX
HX  - HEAT INDEX

$$



USA.gov is the U.S. government's official web portal to all federal, state and local government web resources and services.